User: anonymous   Login
Location: Newark
(37.3167°N, 13.4667°E)
Time: 23:53:30
(UTC+00:00)
Language:

Envisat - Orbit

View from above orbital plane
View from above orbital plane
View from above satellite
View from above satellite

Ground track
Ground track

The orbit data is extracted from the following two-line orbital elements,

1 27386U 02009A   19235.64322012 -.00000011  00000-0  99714-5 0  9995
2 27386  98.1476 253.2899 0001409  88.6957  19.1861 14.37955249915671
Epoch (UTC): 23 August 2019 15:26:14
Eccentricity: 0.0001409
inclination: 98.1476°
perigee height: 764 km
apogee height: 766 km
right ascension of ascending node: 253.2899°
argument of perigee: 88.6957°
revolutions per day: 14.37955249
mean anomaly at epoch: 19.1861°
orbit number at epoch: 91567

The dashed part of the orbit path shows where the satellite is in the earth's shadow,  

DLR